Starlink 3877

operational
NORAD ID: 52355 Int'l Des: 2022-045 Owner: SPXS Country: US Constellation: starlink
LEOCIRCULAR

About Starlink 3877

Description loading...

Live Position

Loading 3D Globe...

Upcoming Passes

Altitude History

Altitude vs Time

uPlot chart will show altitude changes over time

Two-Line Element Set

1 52355U 22045AA 25303.06351101 .00001010 00000-0 81562-4 0 9991
2 52355 53.2251 65.5213 0003130 82.8891 277.2457 15.08839888196069
Epoch: Oct 30, 2025 • Age: 15 hours

Current Status

Altitude 560.0 km
Velocity 7.58 km/s
Sub-Earth Point -52.03°S, 20.99°E
Launch Date Apr 29, 2022
Age 3.5 years
Type internet

Technical Details

Classification Payload
Mass 297.00 kg
Dry Mass 275.00 kg
Total Mass 297.00 kg
Length 0.20 m
Diameter 2.80 m
Span 9.00 m
Shape Box + pan
Manufacturer SPXS
Bus Type Starlink
Phase Status In Orbit
Owner/State SPXS/US

Large Constellations

Loading constellations...